Change the Weather History Date:

Saturday, May 10, 2014

  Actual Average Record
Temperature  
Mean Temperature 70 °F 60 °F  
Max Temperature 79 °F 71 °F 95 °F (1963)
Min Temperature 61 °F 50 °F 32 °F (1962)
Degree Days  
Heating Degree Days 0 6  
Month to date heating degree days 57 70  
Since 1 July heating degree days 5676 5173  
Cooling Degree Days 5 1  
Month to date cooling degree days 6 10  
Year to date cooling degree days 12 17  
Growing Degree Days 20 (Base 50)    
Moisture  
Dew Point 60 °F    
Average Humidity 71    
Maximum Humidity 93    
Minimum Humidity 48    
Precipitation  
Precipitation 1.03 in 0.12 in 1.46 in (1990)
Month to date precipitation 1.21 1.22  
Year to date precipitation 17.71 12.96  
Snow  
Snow 0.00 in - - ()
Month to date snowfall 0.0  
Since 1 July snowfall 44.0  
Snow Depth 0.00 in    
Sea Level Pressure  
Sea Level Pressure 29.92 in    
Wind  
Wind Speed 5 mph (West)    
Max Wind Speed 23 mph    
Max Gust Speed 30 mph    
Visibility 7 miles    
Events Rain , Thunderstorm    
T = Trace of Precipitation, MM = Missing Value Source: NWS Daily Summary

Daily Weather History Graph

Daily Weather History Graph

Search for Another Location

Airport or City:

Trip Planner

Search our weather history database for the weather conditions in past years. The results will help you decide how hot, cold, wet, or windy it might be!

Date:

Astronomy

May. 10, 2014 Rise Set
Actual Time 5:56 AM EDT 8:11 PM EDT
Civil Twilight 5:26 AM EDT 8:41 PM EDT
Nautical Twilight 4:48 AM EDT 9:18 PM EDT
Astronomical Twilight 4:07 AM EDT 10:00 PM EDT
Moon 4:04 PM EDT (5/10) 3:28 AM EDT (5/10)
Length of Visible Light 15h 15m
Length of Day
14h 14m
Waxing Gibbous, 82% of the Moon is Illuminated
May 10
Waxing Gibbous
May 14
Full
May 21
Last Quarter
May 28
New
Jun 5
First Quarter

Hourly Weather History & Observations

Time (EDT) Temp. Dew Point Humidity Pressure Visibility Wind Dir Wind Speed Gust Speed Precip Events Conditions
12:47 AM 66.0 °F 62.1 °F 87% 29.94 in 7.0 mi ESE 3.5 mph - N/A   Overcast
12:56 AM 64.9 °F 62.1 °F 90% 29.94 in 7.0 mi Calm Calm - N/A   Overcast
1:56 AM 64.0 °F 61.0 °F 90% 29.91 in 7.0 mi SSE 4.6 mph - 0.00 in Rain Light Rain
2:56 AM 64.9 °F 61.0 °F 87% 29.91 in 6.0 mi Calm Calm - 0.00 in   Overcast
3:56 AM 64.9 °F 61.0 °F 87% 29.89 in 6.0 mi East 4.6 mph - N/A   Overcast
4:56 AM 64.0 °F 61.0 °F 90% 29.90 in 6.0 mi Calm Calm - N/A   Overcast
5:56 AM 63.0 °F 61.0 °F 93% 29.91 in 6.0 mi Calm Calm - N/A   Mostly Cloudy
6:56 AM 62.1 °F 60.1 °F 93% 29.94 in 4.0 mi Calm Calm - N/A   Overcast
7:56 AM 66.0 °F 62.1 °F 87% 29.94 in 6.0 mi Calm Calm - N/A   Mostly Cloudy
8:56 AM 71.1 °F 62.1 °F 73% 29.95 in 9.0 mi Calm Calm - N/A   Mostly Cloudy
9:56 AM 75.9 °F 62.1 °F 62% 29.94 in 10.0 mi NW 4.6 mph - N/A   Mostly Cloudy
10:56 AM 77.0 °F 59.0 °F 54% 29.95 in 10.0 mi West 17.3 mph 23.0 mph N/A   Mostly Cloudy
11:56 AM 78.1 °F 57.9 °F 50% 29.94 in 10.0 mi West 10.4 mph 25.3 mph N/A   Clear
12:47 PM 78.1 °F 57.0 °F 48% 29.93 in 10.0 mi West 9.2 mph - 0.00 in Rain , Thunderstorm Light Thunderstorms and Rain
12:56 PM 78.1 °F 57.9 °F 50% 29.93 in 10.0 mi SW 12.7 mph 19.6 mph 0.00 in Rain , Thunderstorm Light Thunderstorms and Rain
1:12 PM 78.1 °F 59.0 °F 52% 29.92 in 10.0 mi SSW 6.9 mph - 0.00 in Rain Light Rain
1:56 PM 73.9 °F 57.9 °F 57% 29.91 in 10.0 mi West 10.4 mph - 0.02 in   Overcast
2:56 PM 75.0 °F 60.1 °F 60% 29.91 in 10.0 mi WNW 8.1 mph - N/A   Overcast
3:56 PM 70.0 °F 61.0 °F 73% 29.91 in 3.0 mi WNW 13.8 mph - 0.02 in Rain Heavy Rain
3:59 PM 66.9 °F 61.0 °F 81% 29.93 in 1.0 mi West 18.4 mph - 0.07 in Rain Heavy Rain
4:08 PM 66.0 °F 60.1 °F 81% 29.93 in 1.0 mi West 10.4 mph 29.9 mph 0.46 in Rain , Thunderstorm Thunderstorms and Rain
4:13 PM 66.0 °F 61.0 °F 84% 29.93 in 5.0 mi WSW 6.9 mph - 0.49 in Rain , Thunderstorm Light Thunderstorms and Rain
4:35 PM 64.0 °F 59.0 °F 84% 29.94 in 2.0 mi West 13.8 mph - 0.63 in Rain , Thunderstorm Heavy Thunderstorms and Rain
4:48 PM 63.0 °F 59.0 °F 87% 29.92 in 5.0 mi NW 4.6 mph - 0.88 in Rain Rain
4:56 PM 64.0 °F 60.1 °F 87% 29.91 in 8.0 mi Calm Calm - 0.88 in Rain Light Rain
5:56 PM 66.0 °F 61.0 °F 84% 29.90 in 10.0 mi Calm Calm - 0.00 in Rain Light Rain
6:56 PM 64.9 °F 61.0 °F 87% 29.89 in 10.0 mi Calm Calm - 0.00 in   Overcast
7:30 PM 64.9 °F 62.1 °F 90% 29.91 in 7.0 mi NW 11.5 mph - 0.00 in Rain Light Rain
7:48 PM 64.9 °F 62.1 °F 90% 29.92 in 2.5 mi NW 9.2 mph - 0.03 in Rain Heavy Rain
7:54 PM 64.4 °F 62.6 °F 94% 29.91 in 5.0 mi WNW 5.8 mph - 0.07 in Rain Light Rain
7:56 PM 64.0 °F 62.1 °F 93% 29.91 in 5.0 mi WNW 5.8 mph - 0.07 in Rain Light Rain
8:56 PM 64.0 °F 61.0 °F 90% 29.93 in 8.0 mi WNW 5.8 mph - 0.00 in Rain Light Rain
9:56 PM 64.0 °F 62.1 °F 93% 29.94 in 8.0 mi Calm Calm - 0.03 in Rain Light Rain
10:56 PM 62.1 °F 57.9 °F 86% 29.94 in 10.0 mi Calm Calm - 0.01 in   Mostly Cloudy
11:56 PM 62.1 °F 59.0 °F 90% 29.95 in 10.0 mi WNW 6.9 mph - N/A   Scattered Clouds